FW2417 Weather Reports


Display with metric or nautical units.
time (UTC)temp
F
wind
direction
speed
MPH
gust
MPH
rain 1hr
in
rain 24hr
in
rain mn
in
humidity
%
barometer
mb
20260831124549 96 222 0.0 3.0 0.00 0.00 0.00 26 1016.9
20260831123038 96 73 0.0 2.0 0.00 0.00 0.00 28 1017.0
20260831121545 96 87 0.0 2.0 0.00 0.00 0.00 28 1017.2
20260831120036 95 219 0.0 1.0 0.00 0.00 0.00 29 1017.4
20260831114504 93 225 0.0 1.0 0.00 0.00 0.00 31 1017.5
20260831113118 93 120 1.0 2.0 0.00 0.00 0.00 31 1017.7
20260831111618 92 198 0.0 2.0 0.00 0.00 0.00 32 1017.9
20260831110110 90 82 0.0 3.0 0.00 0.00 0.00 34 1017.9
20260831104607 88 136 0.0 3.0 0.00 0.00 0.00 35 1018.1
20260831103155 87 26 0.0 4.0 0.00 0.00 0.00 35 1018.2
20260831101609 86 340 2.0 6.0 0.00 0.00 0.00 36 1018.3
20260831100109 86 94 0.0 3.0 0.00 0.00 0.00 37 1018.4
20260831094624 85 98 0.0 5.0 0.00 0.00 0.00 37 1018.3
20260831093052 84 92 0.0 4.0 0.00 0.00 0.00 39 1018.3
20260831091542 82 100 0.0 5.0 0.00 0.00 0.00 40 1018.4
20260831090038 82 68 0.0 4.0 0.00 0.00 0.00 41 1018.5
20260831084545 81 94 1.0 5.0 0.00 0.00 0.00 41 1018.4
20260831083035 80 72 1.0 3.0 0.00 0.00 0.00 43 1018.3
20260831081508 79 65 0.0 2.0 0.00 0.00 0.00 45 1018.3
20260831080118 78 77 0.0 2.0 0.00 0.00 0.00 46 1018.2
20260831074616 80 123 0.0 0.0 0.00 0.00 0.00 44 1018.3
20260831073108 79 123 0.0 0.0 0.00 0.00 0.00 45 1018.3
20260831071615 77 123 0.0 0.0 0.00 0.00 0.00 46 1018.1
20260831070052 75 123 0.0 1.0 0.00 0.00 0.00 47 1018.0
20260831064553 74 136 0.0 1.0 0.00 0.00 0.00 50 1017.9
20260831063048 72 148 0.0 1.0 0.00 0.00 0.00 52 1017.7
20260831061548 72 130 0.0 1.0 0.00 0.00 0.00 52 1017.5
20260831060049 72 136 0.0 1.0 0.00 0.00 0.00 53 1017.3
20260831054546 72 123 0.0 0.0 0.00 0.00 0.00 53 1017.3
20260831053048 72 118 0.0 0.0 0.00 0.00 0.00 55 1017.3
20260831051539 72 118 0.0 0.0 0.00 0.00 0.00 55 1017.4
20260831050123 72 119 0.0 0.0 0.00 0.00 0.00 56 1017.3
20260831044502 72 134 0.0 1.0 0.00 0.00 0.00 57 1017.3
20260831043110 72 149 0.0 1.0 0.00 0.00 0.00 56 1017.3
20260831041614 72 136 0.0 1.0 0.00 0.00 0.00 55 1017.3
20260831040110 72 122 0.0 0.0 0.00 0.00 0.00 55 1017.3
20260831034606 73 124 0.0 1.0 0.00 0.00 0.00 54 1017.3
20260831033100 73 139 0.0 1.0 0.00 0.00 0.00 54 1017.4
20260831031554 73 173 0.0 1.0 0.00 0.00 0.00 53 1017.5
20260831030007 74 201 0.0 1.0 0.00 0.00 0.00 52 1017.5
20260831024504 74 218 0.0 0.0 0.00 0.00 0.00 53 1017.6
20260831023115 73 218 0.0 0.0 0.00 0.00 0.00 54 1017.6
20260831021618 74 218 0.0 0.0 0.00 0.00 0.00 53 1017.6
20260831020115 75 218 0.0 2.0 0.00 0.00 0.00 52 1017.6
20260831014608 75 211 0.0 2.0 0.00 0.00 0.00 52 1017.5
20260831013104 76 233 0.0 3.0 0.00 0.00 0.00 52 1017.5
20260831011609 75 280 0.0 2.0 0.00 0.00 0.00 52 1017.6
20260831010045 75 243 0.0 1.0 0.00 0.00 0.00 52 1017.6
20260831004549 76 246 0.0 1.0 0.00 0.00 0.00 52 1017.5
20260831003041 77 234 0.0 5.0 0.00 0.00 0.00 51 1017.4
20260831001539 77 229 0.0 3.0 0.00 0.00 0.00 51 1017.5
20260831000012 77 236 0.0 0.0 0.00 0.00 0.00 51 1017.5
20260830234508 77 218 0.0 0.0 0.00 0.00 0.00 51 1017.4
20260830233118 77 205 0.0 0.0 0.00 0.00 0.00 50 1017.5
20260830231618 78 203 0.0 0.0 0.00 0.00 0.00 51 1017.4
20260830230110 78 231 0.0 0.0 0.00 0.00 0.00 50 1017.4
20260830224609 78 233 0.0 0.0 0.00 0.00 0.00 51 1017.2
20260830223052 78 232 0.0 0.0 0.00 0.00 0.00 51 1017.2
20260830221549 78 239 0.0 4.0 0.00 0.00 0.00 50 1017.2
20260830220010 78 213 2.0 9.0 0.00 0.00 0.00 49 1017.1
20260830214616 79 229 2.0 10.0 0.00 0.00 0.00 49 1017.1
20260830213127 79 204 3.0 12.0 0.00 0.00 0.00 49 1017.1
20260830211607 80 235 2.0 10.0 0.00 0.00 0.00 47 1017.1
20260830210103 81 222 2.0 7.0 0.00 0.00 0.00 47 1017.0
20260830204610 82 226 1.0 5.0 0.00 0.00 0.00 46 1016.9
20260830203055 83 243 0.0 3.0 0.00 0.00 0.00 43 1016.8
20260830201600 84 249 0.0 4.0 0.00 0.00 0.00 41 1016.8
20260830200049 85 245 0.0 3.0 0.00 0.00 0.00 39 1016.5
20260830194551 86 260 0.0 6.0 0.00 0.00 0.00 36 1016.4
20260830193047 87 231 0.0 3.0 0.00 0.00 0.00 35 1016.3
20260830191544 88 229 0.0 7.0 0.00 0.00 0.00 33 1016.0
20260830190043 89 215 0.0 4.0 0.00 0.00 0.00 30 1016.0
20260830184538 90 249 1.0 10.0 0.00 0.00 0.00 29 1015.8
20260830183035 91 245 0.0 3.0 0.00 0.00 0.00 27 1015.8
20260830181534 92 259 0.0 6.0 0.00 0.00 0.00 25 1015.7
20260830180114 95 258 0.0 5.0 0.00 0.00 0.00 24 1015.8
20260830174618 96 243 2.0 5.0 0.00 0.00 0.00 19 1015.8
20260830173111 96 307 1.0 7.0 0.00 0.00 0.00 20 1015.7
20260830171615 97 256 1.0 6.0 0.00 0.00 0.00 20 1015.7
20260830170105 97 255 1.0 5.0 0.00 0.00 0.00 19 1015.7
20260830164602 97 225 0.0 5.0 0.00 0.00 0.00 19 1015.8
20260830163055 98 300 1.0 4.0 0.00 0.00 0.00 18 1015.7
20260830161605 97 249 1.0 6.0 0.00 0.00 0.00 19 1015.8
20260830160039 97 358 0.0 5.0 0.00 0.00 0.00 19 1015.8
20260830154539 96 7 2.0 6.0 0.00 0.00 0.00 20 1015.9
20260830153044 97 209 0.0 5.0 0.00 0.00 0.00 21 1015.9
20260830151538 97 157 0.0 5.0 0.00 0.00 0.00 21 1016.0
20260830150117 97 148 2.0 4.0 0.00 0.00 0.00 21 1016.2
20260830144632 96 346 3.0 8.0 0.00 0.00 0.00 22 1016.4
20260830143115 95 77 0.0 4.0 0.00 0.00 0.00 22 1016.5
20260830141612 96 13 0.0 3.0 0.00 0.00 0.00 21 1016.7
20260830140110 96 290 0.0 2.0 0.00 0.00 0.00 22 1016.8
20260830134606 95 243 0.0 3.0 0.00 0.00 0.00 22 1017.0
20260830133054 96 326 0.0 4.0 0.00 0.00 0.00 23 1017.1
20260830131552 95 117 0.0 3.0 0.00 0.00 0.00 20 1017.3
20260830130055 94 187 2.0 6.0 0.00 0.00 0.00 24 1017.5